Location: Oshawa
(43.9000°N, 78.8670°W)
Time: 02:26:29
(UTC-04:00)

Explorer 7 - Visible Passes

Search period start: 30 May 2015 00:00
Search period end: 09 June 2015 00:00
Orbit: 488 x 694 km, 50.3° (Epoch: 29 May)

Date Brightness Start Highest point End Pass type
(mag) Time Alt. Az. Time Alt. Az. Time Alt. Az.
30 May 9.3 01:30:37 10° WNW 01:30:54 12° W 01:30:54 12° W visible
30 May 8.1 22:17:04 10° WNW 22:20:36 34° N 22:24:16 10° ENE visible
30 May 6.6 23:57:40 10° WNW 00:01:36 89° SSW 00:01:36 89° SSW visible
31 May 7.8 22:25:03 10° NW 22:28:43 41° NNE 22:32:19 11° E visible
01 Jun 7.3 00:05:41 10° WNW 00:08:48 48° WSW 00:08:48 48° WSW visible
01 Jun 7.2 22:33:00 10° WNW 22:36:47 55° NNE 22:39:34 18° E visible
02 Jun 8.2 00:13:48 10° WNW 00:16:03 27° WSW 00:16:03 27° WSW visible
02 Jun 6.7 22:40:56 10° WNW 22:44:46 80° NNE 22:46:51 27° ESE visible
03 Jun 8.9 00:22:11 10° W 00:23:21 15° WSW 00:23:21 15° WSW visible
03 Jun 6.7 22:48:53 10° WNW 22:52:43 66° SSW 22:54:11 35° SE visible
04 Jun 7.4 22:56:56 10° WNW 23:00:34 39° SW 23:01:32 33° S visible
05 Jun 6.8 21:24:07 10° WNW 21:27:55 70° NNE 21:31:49 10° ESE visible
05 Jun 8.1 23:05:13 10° W 23:08:21 23° SW 23:08:57 23° SSW visible
06 Jun 6.7 21:32:03 10° WNW 21:35:51 77° SSW 21:39:45 10° SE visible
06 Jun 8.9 23:14:00 10° WSW 23:16:06 14° SW 23:16:24 14° SW visible
07 Jun 7.3 21:40:03 10° WNW 21:43:42 46° SW 21:47:23 10° SE visible
08 Jun 8.1 21:48:13 10° W 21:51:29 27° SW 21:54:49 10° SSE visible
